• In Belarus
  • List of Countries
  • For 7 days
  • Water Temperature
  • Satellite Maps
  • Weather Map
  • Weather Widgets
  • user-avatar
    Login

    Hourly Weather Rozhnyatov

    Today, 20 October, Friday

    Time Temperature Precipitation Wind Pressure Humidity
    00:00 +12°C° 0 mm 1 mps 727 mmHg 81%
    01:00 +12°C° 0 mm 1 mps 727 mmHg 82%
    02:00 +11°C° 0 mm 1 mps 727 mmHg 82%
    03:00 +11°C° 0 mm 1 mps 727 mmHg 83%
    04:00 +11°C° 0 mm 1 mps 727 mmHg 83%
    05:00 +10°C° 0 mm 1 mps 727 mmHg 84%
    06:00 +11°C° 0 mm 1 mps 727 mmHg 82%
    07:00 +11°C° 0 mm 1 mps 727 mmHg 81%
    08:00 +11°C° 0 mm 1 mps 727 mmHg 79%
    09:00 +14°C° 0 mm 1 mps 728 mmHg 71%
    10:00 +15°C° 0 mm 0 mps 728 mmHg 63%
    11:00 +17°C° 0 mm 0 mps 728 mmHg 55%
    12:00 +20°C° 0 mm 1 mps 728 mmHg 53%
    13:00 +20°C° 0 mm 1 mps 728 mmHg 51%
    14:00 +21°C° 0 mm 1 mps 728 mmHg 49%
    15:00 +19°C° 0 mm 1 mps 728 mmHg 55%
    16:00 +18°C° 0 mm 1 mps 727 mmHg 62%
    17:00 +15°C° 0 mm 1 mps 727 mmHg 69%
    18:00 +14°C° 0 mm 1 mps 727 mmHg 73%
    19:00 +13°C° 0 mm 1 mps 728 mmHg 77%
    20:00 +12°C° 0 mm 1 mps 728 mmHg 81%
    21:00 +12°C° 0 mm 1 mps 728 mmHg 81%
    22:00 +11°C° 0 mm 1 mps 728 mmHg 81%
    23:00 +11°C° 0 mm 1 mps 728 mmHg 81%

    Tomorrow, 21 October, Saturday

    Time Temperature Precipitation Wind Pressure Humidity
    00:00 +11°C° 0 mm 1 mps 728 mmHg 81%
    01:00 +11°C° 0 mm 1 mps 728 mmHg 80%
    02:00 +10°C° 0 mm 1 mps 728 mmHg 80%
    03:00 +10°C° 0 mm 1 mps 728 mmHg 80%
    04:00 +10°C° 0 mm 1 mps 728 mmHg 80%
    05:00 +9°C° 0 mm 1 mps 727 mmHg 81%
    06:00 +10°C° 0 mm 1 mps 727 mmHg 80%
    07:00 +10°C° 0 mm 1 mps 727 mmHg 79%
    08:00 +10°C° 0 mm 1 mps 728 mmHg 78%
    09:00 +13°C° 0 mm 1 mps 727 mmHg 70%
    10:00 +15°C° 0 mm 1 mps 727 mmHg 62%
    11:00 +18°C° 0 mm 1 mps 727 mmHg 54%
    12:00 +19°C° 0 mm 1 mps 727 mmHg 52%
    13:00 +18°C° 0 mm 2 mps 727 mmHg 50%
    14:00 +19°C° 0 mm 2 mps 726 mmHg 48%
    15:00 +18°C° 0 mm 2 mps 726 mmHg 55%
    16:00 +16°C° 0 mm 1 mps 726 mmHg 62%
    17:00 +15°C° 0 mm 1 mps 726 mmHg 68%
    18:00 +14°C° 0.7 mm 1 mps 726 mmHg 75%
    19:00 +13°C° 0.7 mm 1 mps 726 mmHg 81%
    20:00 +12°C° 0.7 mm 2 mps 726 mmHg 88%
    21:00 +12°C° 0.4 mm 1 mps 726 mmHg 88%
    22:00 +12°C° 0.4 mm 1 mps 726 mmHg 89%
    23:00 +11°C° 0.4 mm 1 mps 726 mmHg 90%

    Day after tomorrow, 22 October, Sunday

    Time Temperature Precipitation Wind Pressure Humidity
    00:00 +11°C° 0 mm 1 mps 726 mmHg 91%
    01:00 +11°C° 0 mm 1 mps 726 mmHg 91%
    02:00 +10°C° 0 mm 1 mps 726 mmHg 91%
    03:00 +10°C° 0 mm 1 mps 726 mmHg 92%
    04:00 +9°C° 0 mm 1 mps 726 mmHg 93%
    05:00 +9°C° 0 mm 1 mps 726 mmHg 94%
    06:00 +9°C° 0 mm 1 mps 726 mmHg 93%
    07:00 +9°C° 0 mm 1 mps 726 mmHg 93%
    08:00 +9°C° 0 mm 1 mps 726 mmHg 92%
    09:00 +11°C° 0 mm 1 mps 726 mmHg 86%
    10:00 +12°C° 0 mm 1 mps 726 mmHg 80%
    11:00 +14°C° 0 mm 1 mps 727 mmHg 73%
    12:00 +14°C° 0 mm 1 mps 726 mmHg 71%
    13:00 +15°C° 0 mm 1 mps 726 mmHg 69%
    14:00 +15°C° 0 mm 2 mps 726 mmHg 67%
    15:00 +14°C° 0 mm 2 mps 725 mmHg 72%
    16:00 +13°C° 0 mm 2 mps 725 mmHg 78%
    17:00 +12°C° 0 mm 2 mps 725 mmHg 83%
    18:00 +12°C° 0 mm 2 mps 725 mmHg 86%
    19:00 +10°C° 0 mm 2 mps 725 mmHg 89%
    20:00 +9°C° 0 mm 2 mps 725 mmHg 92%
    21:00 +9°C° 0 mm 2 mps 724 mmHg 91%
    22:00 +9°C° 0 mm 2 mps 724 mmHg 91%
    23:00 +9°C° 0 mm 2 mps 724 mmHg 90%

    23 October, Monday

    Time Temperature Precipitation Wind Pressure Humidity
    00:00 +9°C° 0 mm 2 mps 724 mmHg 90%
    01:00 +9°C° 0 mm 2 mps 724 mmHg 89%
    02:00 +9°C° 0 mm 2 mps 723 mmHg 88%
    03:00 +8°C° 0 mm 2 mps 723 mmHg 87%
    04:00 +8°C° 0 mm 2 mps 722 mmHg 87%
    05:00 +8°C° 0 mm 2 mps 722 mmHg 86%
    06:00 +9°C° 0 mm 2 mps 722 mmHg 86%
    07:00 +9°C° 0 mm 2 mps 722 mmHg 85%
    08:00 +9°C° 0 mm 2 mps 722 mmHg 85%
    09:00 +10°C° 0 mm 3 mps 721 mmHg 82%
    10:00 +11°C° 0 mm 3 mps 721 mmHg 79%
    11:00 +12°C° 0 mm 3 mps 721 mmHg 76%
    12:00 +12°C° 0.1 mm 3 mps 721 mmHg 76%
    13:00 +12°C° 0.1 mm 3 mps 720 mmHg 76%
    14:00 +13°C° 0.1 mm 4 mps 720 mmHg 77%
    15:00 +12°C° 0.2 mm 3 mps 720 mmHg 81%
    16:00 +12°C° 0.2 mm 3 mps 720 mmHg 84%
    17:00 +11°C° 0.2 mm 3 mps 720 mmHg 88%
    18:00 +11°C° 0.1 mm 3 mps 720 mmHg 89%
    19:00 +10°C° 0.1 mm 3 mps 720 mmHg 91%
    20:00 +10°C° 0.1 mm 3 mps 721 mmHg 93%
    21:00 +10°C° 0.2 mm 3 mps 721 mmHg 93%
    22:00 +10°C° 0.2 mm 3 mps 721 mmHg 93%
    23:00 +10°C° 0.2 mm 3 mps 721 mmHg 93%

    24 October, Tuesday

    Time Temperature Precipitation Wind Pressure Humidity
    00:00 +10°C° 0.5 mm 3 mps 721 mmHg 93%
    01:00 +10°C° 0.5 mm 3 mps 721 mmHg 94%
    02:00 +10°C° 0.5 mm 3 mps 721 mmHg 94%
    03:00 +9°C° 0.4 mm 3 mps 721 mmHg 94%
    04:00 +9°C° 0.4 mm 3 mps 721 mmHg 94%
    05:00 +9°C° 0.4 mm 3 mps 722 mmHg 94%
    06:00 +9°C° 0.1 mm 3 mps 722 mmHg 94%
    07:00 +9°C° 0.1 mm 3 mps 722 mmHg 94%
    08:00 +9°C° 0.1 mm 3 mps 723 mmHg 94%
    09:00 +9°C° 0.2 mm 2 mps 723 mmHg 93%
    10:00 +9°C° 0.2 mm 2 mps 724 mmHg 92%
    11:00 +9°C° 0.2 mm 2 mps 724 mmHg 91%
    12:00 +9°C° 0.2 mm 2 mps 724 mmHg 90%
    13:00 +9°C° 0.2 mm 2 mps 725 mmHg 90%
    14:00 +9°C° 0.2 mm 2 mps 725 mmHg 89%
    15:00 +9°C° 0.3 mm 2 mps 725 mmHg 90%
    16:00 +10°C° 0.3 mm 1 mps 726 mmHg 92%
    17:00 +10°C° 0.3 mm 1 mps 726 mmHg 93%
    18:00 +9°C° 0.5 mm 1 mps 727 mmHg 93%
    19:00 +9°C° 0.5 mm 1 mps 727 mmHg 94%
    20:00 +9°C° 0.5 mm 1 mps 728 mmHg 94%
    21:00 +9°C° 0.2 mm 1 mps 728 mmHg 94%
    22:00 +9°C° 0.2 mm 1 mps 728 mmHg 94%
    23:00 +9°C° 0.2 mm 1 mps 729 mmHg 94%

    25 October, Wednesday

    Time Temperature Precipitation Wind Pressure Humidity
    00:00 +9°C° 0.1 mm 1 mps 729 mmHg 95%
    01:00 +9°C° 0.1 mm 1 mps 729 mmHg 95%
    02:00 +9°C° 0.1 mm 1 mps 730 mmHg 95%
    03:00 +9°C° 0 mm 1 mps 730 mmHg 95%
    04:00 +7°C° 0 mm 2 mps 730 mmHg 95%
    05:00 +7°C° 0 mm 2 mps 730 mmHg 95%
    06:00 +7°C° 0.1 mm 2 mps 731 mmHg 95%
    07:00 +7°C° 0.1 mm 2 mps 731 mmHg 94%
    08:00 +7°C° 0.1 mm 2 mps 732 mmHg 94%
    09:00 +7°C° 0 mm 2 mps 732 mmHg 92%
    10:00 +7°C° 0 mm 2 mps 732 mmHg 90%
    11:00 +8°C° 0 mm 2 mps 732 mmHg 88%
    12:00 +8°C° 0 mm 2 mps 732 mmHg 87%
    13:00 +8°C° 0 mm 2 mps 732 mmHg 85%
    14:00 +8°C° 0 mm 2 mps 732 mmHg 84%
    15:00 +8°C° 0 mm 2 mps 732 mmHg 85%
    16:00 +7°C° 0 mm 2 mps 733 mmHg 87%
    17:00 +7°C° 0 mm 2 mps 733 mmHg 88%
    18:00 +7°C° 0 mm 2 mps 733 mmHg 89%
    19:00 +6°C° 0 mm 2 mps 733 mmHg 91%
    20:00 +6°C° 0 mm 2 mps 734 mmHg 92%
    21:00 +6°C° 0 mm 1 mps 734 mmHg 92%
    22:00 +6°C° 0 mm 1 mps 734 mmHg 93%
    23:00 +6°C° 0 mm 1 mps 734 mmHg 93%
    Show more